This is the latest recevied weather packets stored in our database for station/object S59MA-6. If no packets are shown the sender has not sent any weather packets the latest 10 day(s).
| Time | Temp. | Humidity | Pressure | Rain* | Wind** | Luminosity | Snow |
|---|---|---|---|---|---|---|---|
| 1778408117 | 21.67° C | 64% | 1002.1 hPa | 253.75 mm | - | - | - |
| 1778407819 | 21.67° C | 64% | 1002.1 hPa | 253.75 mm | - | - | - |
| 1778407219 | 20° C | 66% | 1003.1 hPa | 253.75 mm | - | - | - |
| 1778406018 | 18.89° C | 65% | 1002.3 hPa | 8.13 mm | - | - | - |
| 1778404817 | 18.89° C | 65% | 1002.7 hPa | 253.75 mm | - | - | - |
| 1778404218 | 18.89° C | 65% | 1003.8 hPa | 253.75 mm | - | - | - |
| 1778403620 | 18.89° C | 65% | 1003.9 hPa | 0 mm | - | - | - |
| 1778403316 | 18.89° C | 65% | 1004 hPa | 0 mm | - | - | - |
| 1778402717 | 19.44° C | 65% | 1004 hPa | 0 mm | - | - | - |
| 1778402417 | 19.44° C | 65% | 1003.8 hPa | 0 mm | - | - | - |
| 1778401816 | 19.44° C | 67% | 1003.9 hPa | 0 mm | - | - | - |
| 1778401520 | 18.89° C | 67% | 1004 hPa | 2.03 mm | - | - | - |
| 1778400916 | 18.89° C | 66% | 1004.2 hPa | 2.03 mm | - | - | - |
| 1778400617 | 18.89° C | 66% | 1004 hPa | 2.03 mm | - | - | - |
| 1778400319 | 18.89° C | 67% | 1004 hPa | 2.03 mm | - | - | - |
| 1778400016 | 18.89° C | 67% | 1004.3 hPa | 2.03 mm | - | - | - |
| 1778399716 | 18.89° C | 68% | 1004.3 hPa | 2.03 mm | - | - | - |
| 1778399420 | 18.89° C | 69% | 1004.2 hPa | 2.03 mm | - | - | - |
| 1778399116 | 18.33° C | 69% | 1004.2 hPa | 2.03 mm | - | - | - |
| 1778398516 | 17.78° C | 69% | 1004.2 hPa | 2.03 mm | - | - | - |
| 1778398216 | 18.33° C | 69% | 1004.4 hPa | 0 mm | - | - | - |
| 1778397916 | 17.78° C | 69% | 1004.4 hPa | 0 mm | - | - | - |
| 1778397619 | 17.78° C | 68% | 1004.4 hPa | 0 mm | - | - | - |
| 1778397317 | 17.78° C | 68% | 1004.4 hPa | 0 mm | - | - | - |
| 1778397017 | 17.78° C | 68% | 1004.5 hPa | 0 mm | - | - | - |
* Rain latest hour (hover to see other rain measurements)
** Current wind speed in m/s (hover to see current wind gust speed)